Starlink 31685

operational
NORAD ID: 59578 Int'l Des: 2024-076 Owner: SPXS Country: US Constellation: starlink
LEOCIRCULAR

About Starlink 31685

Description loading...

Live Position

Loading 3D Globe...

Upcoming Passes

Altitude History

Altitude vs Time

uPlot chart will show altitude changes over time

Two-Line Element Set

1 59578U 24076Q 25305.90359975 .00007868 00000-0 29523-3 0 9998
2 59578 43.0053 10.2993 0001523 284.8203 75.2480 15.27567882 86969
Epoch: Nov 1, 2025 • Age: 40 hours

Current Status

Altitude 486.3 km
Velocity 7.63 km/s
Sub-Earth Point 39.06°N, 123.16°W
Launch Date Apr 23, 2024
Age 1.5 years
Type internet

Technical Details

Classification Payload
Mass 730.00 kg
Dry Mass 700.00 kg
Total Mass 730.00 kg
Length 0.30 m
Diameter 4.10 m
Span 29.00 m
Shape Box + pan
Manufacturer SPXS
Bus Type Starlink V2M
Phase Status In Orbit
Owner/State SPXS/US

Large Constellations

Loading constellations...